TimeCDT,TemperatureF,Dew PointF,Humidity,Sea Level PressureIn,VisibilityMPH,Wind Direction,Wind SpeedMPH,Gust SpeedMPH,PrecipitationIn,Events,Conditions,WindDirDegrees,DateUTC
12:53 AM,82.0,75.9,82,30.01,9.0,Calm,Calm,-,N/A,,Clear,0,2013-06-16 05:53:00
1:53 AM,79.0,75.0,88,29.99,7.0,Calm,Calm,-,N/A,,Clear,0,2013-06-16 06:53:00
2:53 AM,78.1,73.9,87,29.98,6.0,Calm,Calm,-,N/A,,Clear,0,2013-06-16 07:53:00
3:53 AM,78.1,73.9,87,29.98,6.0,Calm,Calm,-,N/A,,Partly Cloudy,0,2013-06-16 08:53:00
4:53 AM,77.0,73.9,90,29.99,5.0,Calm,Calm,-,N/A,,Partly Cloudy,0,2013-06-16 09:53:00
5:53 AM,77.0,73.0,88,30.01,3.0,Calm,Calm,-,N/A,,Clear,0,2013-06-16 10:53:00
6:53 AM,79.0,75.0,88,30.02,5.0,Calm,Calm,-,N/A,,Clear,0,2013-06-16 11:53:00
7:53 AM,84.0,75.9,76,30.04,8.0,Calm,Calm,-,N/A,,Clear,0,2013-06-16 12:53:00
8:53 AM,87.1,73.9,65,30.04,10.0,SE,4.6,-,N/A,,Scattered Clouds,140,2013-06-16 13:53:00
9:21 AM,87.8,73.4,62,30.04,10.0,SE,6.9,-,N/A,,Overcast,140,2013-06-16 14:21:00
9:53 AM,84.9,75.9,74,30.04,10.0,Calm,Calm,-,0.00,,Overcast,0,2013-06-16 14:53:00
10:53 AM,88.0,75.0,65,30.03,10.0,Calm,Calm,-,0.00,,Mostly Cloudy,0,2013-06-16 15:53:00
11:53 AM,87.1,77.0,72,30.03,9.0,Variable,4.6,-,0.00,Rain,Light Rain,0,2013-06-16 16:53:00
12:53 PM,88.0,77.0,70,30.01,10.0,SE,10.4,-,0.00,,Mostly Cloudy,130,2013-06-16 17:53:00
1:53 PM,90.0,75.9,63,30.00,10.0,SE,9.2,-,N/A,,Scattered Clouds,140,2013-06-16 18:53:00
2:53 PM,91.0,75.0,59,29.99,10.0,SSE,9.2,-,N/A,,Partly Cloudy,160,2013-06-16 19:53:00
3:53 PM,91.0,75.0,59,29.98,10.0,South,10.4,-,N/A,,Partly Cloudy,180,2013-06-16 20:53:00
4:53 PM,91.0,75.0,59,29.97,10.0,SSW,10.4,-,N/A,,Clear,210,2013-06-16 21:53:00
5:53 PM,86.0,72.0,63,29.98,9.0,WSW,6.9,-,0.00,Rain,Light Rain,240,2013-06-16 22:53:00
6:53 PM,84.9,71.1,63,29.98,10.0,Calm,Calm,-,0.00,,Clear,0,2013-06-16 23:53:00
7:53 PM,82.0,73.9,76,29.99,9.0,Calm,Calm,-,N/A,,Clear,0,2013-06-17 00:53:00
8:53 PM,84.0,75.0,74,29.97,10.0,South,3.5,-,N/A,,Clear,190,2013-06-17 01:53:00
9:53 PM,86.0,75.9,72,29.99,10.0,SSW,5.8,-,N/A,,Partly Cloudy,210,2013-06-17 02:53:00
10:53 PM,84.9,75.0,72,30.00,10.0,SSW,5.8,-,N/A,,Clear,210,2013-06-17 03:53:00
11:53 PM,86.0,73.9,67,30.00,10.0,SW,6.9,-,N/A,,Scattered Clouds,220,2013-06-17 04:53:00